TimeCST,TemperatureF,Dew PointF,Humidity,Sea Level PressureIn,VisibilityMPH,Wind Direction,Wind SpeedMPH,Gust SpeedMPH,PrecipitationIn,Events,Conditions,WindDirDegrees,DateUTC
12:54 AM,55.4,28.4,36,30.06,8.0,Calm,Calm,-,N/A,,Mostly Cloudy,0,2013-02-26 06:54:00
1:42 AM,53.6,28.4,38,30.03,8.0,Calm,Calm,-,N/A,,Mostly Cloudy,0,2013-02-26 07:42:00
2:44 AM,53.6,28.4,38,29.61,8.0,Calm,Calm,-,N/A,,Mostly Cloudy,0,2013-02-26 08:44:00
4:56 AM,50.0,28.4,43,30.03,8.0,Calm,Calm,-,N/A,,Mostly Cloudy,0,2013-02-26 10:56:00
6:48 AM,48.2,28.4,46,30.06,10.0,Calm,Calm,-,N/A,,Mostly Cloudy,0,2013-02-26 12:48:00
7:41 AM,50.0,28.4,43,30.09,10.0,Calm,Calm,-,N/A,,Mostly Cloudy,0,2013-02-26 13:41:00
8:52 AM,62.6,30.2,30,29.78,10.0,Calm,Calm,-,N/A,,Scattered Clouds,0,2013-02-26 14:52:00
10:03 AM,71.6,32.0,23,30.09,10.0,Calm,Calm,-,N/A,,Mostly Cloudy,0,2013-02-26 16:03:00
10:46 AM,73.4,33.8,23,30.09,10.0,SW,4.6,-,N/A,,Mostly Cloudy,230,2013-02-26 16:46:00
11:43 AM,75.2,33.8,22,29.74,10.0,West,11.5,-,N/A,,Mostly Cloudy,260,2013-02-26 17:43:00
12:46 PM,80.6,33.8,18,30.06,10.0,West,10.4,21.9,N/A,,Scattered Clouds,270,2013-02-26 18:46:00
1:44 PM,84.2,32.0,15,30.03,10.0,WSW,11.5,23.0,N/A,,Scattered Clouds,250,2013-02-26 19:44:00
2:44 PM,86.0,28.4,12,29.57,10.0,WSW,17.3,-,N/A,,Scattered Clouds,240,2013-02-26 20:44:00
4:01 PM,86.0,28.4,12,29.97,10.0,SSW,20.7,-,N/A,,Scattered Clouds,210,2013-02-26 22:01:00
4:50 PM,84.2,26.6,12,29.97,10.0,West,16.1,-,N/A,,Scattered Clouds,260,2013-02-26 22:50:00
5:49 PM,80.6,24.8,13,29.59,10.0,SW,16.1,27.6,N/A,,Scattered Clouds,230,2013-02-26 23:49:00
6:40 PM,77.0,28.4,17,30.00,10.0,SW,17.3,-,N/A,,Mostly Cloudy,220,2013-02-27 00:40:00
7:50 PM,69.8,26.6,20,30.06,8.0,WSW,5.8,-,N/A,,Mostly Cloudy,240,2013-02-27 01:50:00
8:50 PM,64.4,26.6,24,29.73,8.0,SW,4.6,-,N/A,,Mostly Cloudy,230,2013-02-27 02:50:00
9:45 PM,62.6,30.2,30,30.12,8.0,NW,6.9,-,N/A,,Scattered Clouds,310,2013-02-27 03:45:00